�������l�o���
Date,Time,MP-1(��Sv/h),MP-2(��Sv/h),MP-3(��Sv/h),MP-4(��Sv/h),MP-5(��Sv/h),MP-6(��Sv/h),MP-7(��Sv/h),MP-8(��Sv/h),����,����(m/s),���J
2021/03/22,00:00,0.616,0.884,0.574,1.097,0.766,0.370,0.639,0.604,�k�k��,2.6,��
2021/03/22,00:10,0.614,0.882,0.574,1.096,0.766,0.369,0.638,0.604,�k�k��,1.5,��
2021/03/22,00:20,0.614,0.884,0.573,1.097,0.765,0.369,0.639,0.604,�k��,3.0,��
2021/03/22,00:30,0.614,0.883,0.573,1.097,0.765,0.368,0.638,0.604,�k��,2.3,�L
2021/03/22,00:40,0.612,0.882,0.573,1.098,0.766,0.370,0.640,0.604,�k��,3.1,�L
2021/03/22,00:50,0.614,0.884,0.574,1.098,0.765,0.370,0.640,0.603,�k��,4.9,�L
2021/03/22,01:00,0.612,0.881,0.573,1.100,0.766,0.371,0.638,0.603,�k,3.0,�L
2021/03/22,01:10,0.614,0.883,0.573,1.099,0.767,0.370,0.638,0.604,�k�k��,3.3,�L
2021/03/22,01:20,0.614,0.884,0.574,1.102,0.764,0.370,0.639,0.604,�k,4.0,�L
2021/03/22,01:30,0.613,0.880,0.575,1.100,0.766,0.371,0.639,0.604,�k�k��,4.1,�L
2021/03/22,01:40,0.613,0.883,0.576,1.101,0.770,0.370,0.639,0.604,�k,3.5,�L
2021/03/22,01:50,0.615,0.885,0.576,1.100,0.767,0.372,0.640,0.605,�k,3.9,�L
2021/03/22,02:00,0.616,0.885,0.576,1.100,0.767,0.371,0.640,0.604,�k�k��,1.7,�L
2021/03/22,02:10,0.615,0.887,0.575,1.101,0.769,0.371,0.639,0.604,�k,3.4,�L
2021/03/22,02:20,0.615,0.886,0.574,1.099,0.770,0.371,0.640,0.604,�k,2.3,�L
2021/03/22,02:30,0.614,0.885,0.574,1.102,0.771,0.371,0.640,0.606,�k�k��,1.7,�L
2021/03/22,02:40,0.616,0.884,0.577,1.102,0.770,0.372,0.642,0.605,�k,2.0,�L
2021/03/22,02:50,0.618,0.886,0.576,1.103,0.769,0.374,0.643,0.605,�k��,1.9,�L
2021/03/22,03:00,0.618,0.886,0.578,1.104,0.771,0.374,0.642,0.604,�k�k��,1.9,�L
2021/03/22,03:10,0.617,0.885,0.574,1.104,0.771,0.374,0.641,0.604,�k��,2.6,�L
2021/03/22,03:20,0.616,0.886,0.576,1.105,0.772,0.371,0.641,0.606,�k�k��,2.0,��
2021/03/22,03:30,0.614,0.887,0.574,1.103,0.770,0.371,0.642,0.605,�k��,3.0,�L
2021/03/22,03:40,0.614,0.885,0.575,1.103,0.769,0.369,0.641,0.604,�k��,3.4,�L
2021/03/22,03:50,0.615,0.885,0.574,1.105,0.769,0.372,0.641,0.605,�k��,2.3,�L
2021/03/22,04:00,0.615,0.885,0.574,1.104,0.769,0.371,0.642,0.604,�k��,4.4,�L
2021/03/22,04:10,0.614,0.886,0.574,1.104,0.768,0.370,0.641,0.603,�k�k��,5.3,�L
2021/03/22,04:20,0.615,0.885,0.573,1.103,0.766,0.369,0.640,0.604,�k�k��,3.3,�L
2021/03/22,04:30,0.612,0.885,0.572,1.103,0.769,0.367,0.640,0.605,�k,4.0,�L
2021/03/22,04:40,0.612,0.884,0.572,1.104,0.769,0.369,0.641,0.603,�k,5.4,�L
2021/03/22,04:50,0.612,0.884,0.572,1.106,0.770,0.367,0.641,0.604,�k,4.6,�L
2021/03/22,05:00,0.611,0.884,0.572,1.106,0.768,0.368,0.642,0.605,�k,5.1,�L
2021/03/22,05:10,0.611,0.884,0.572,1.104,0.768,0.368,0.640,0.604,�k�k��,4.7,�L
2021/03/22,05:20,0.611,0.884,0.569,1.106,0.770,0.367,0.641,0.605,�k�k��,6.1,��
2021/03/22,05:30,0.611,0.886,0.571,1.105,0.769,0.367,0.641,0.604,�k�k��,5.6,��
2021/03/22,05:40,0.612,0.887,0.570,1.107,0.770,0.367,0.642,0.604,�k,5.7,��
2021/03/22,05:50,0.610,0.885,0.570,1.106,0.770,0.367,0.641,0.601,�k,4.9,��
2021/03/22,06:00,0.611,0.884,0.571,1.107,0.772,0.366,0.642,0.603,�k��,4.5,��
2021/03/22,06:10,0.614,0.885,0.571,1.106,0.771,0.365,0.641,0.605,�k��,5.4,��
2021/03/22,06:20,0.611,0.886,0.572,1.108,0.772,0.367,0.641,0.604,�k�k��,6.3,��
2021/03/22,06:30,0.612,0.886,0.571,1.107,0.771,0.366,0.642,0.603,�k�k��,1.5,��
2021/03/22,06:40,0.612,0.886,0.572,1.107,0.772,0.366,0.641,0.606,�k��,6.7,��
2021/03/22,06:50,0.612,0.887,0.570,1.108,0.772,0.366,0.642,0.603,�k��,6.0,��
2021/03/22,07:00,0.611,0.886,0.571,1.106,0.772,0.367,0.643,0.603,�k��,4.3,��
2021/03/22,07:10,0.612,0.888,0.571,1.109,0.774,0.367,0.642,0.605,�k��,5.1,��
2021/03/22,07:20,0.613,0.890,0.570,1.110,0.773,0.365,0.642,0.603,�k��,4.8,��
2021/03/22,07:30,0.611,0.887,0.574,1.109,0.774,0.367,0.642,0.605,�k��,4.5,��
2021/03/22,07:40,0.612,0.888,0.572,1.108,0.773,0.368,0.643,0.604,�k��,3.3,��
2021/03/22,07:50,0.613,0.890,0.572,1.109,0.774,0.366,0.642,0.606,�k�k��,4.8,��
2021/03/22,08:00,0.613,0.887,0.572,1.109,0.776,0.366,0.642,0.606,�k��,2.5,��
2021/03/22,08:10,0.613,0.888,0.572,1.111,0.775,0.367,0.644,0.605,�k�k��,1.7,��
2021/03/22,08:20,0.612,0.889,0.573,1.111,0.777,0.366,0.643,0.605,�k�k��,1.5,��
2021/03/22,08:30,0.613,0.892,0.572,1.110,0.775,0.365,0.646,0.605,�k,1.7,��
2021/03/22,08:40,0.614,0.891,0.574,1.111,0.775,0.366,0.644,0.605,�k,1.5,��
2021/03/22,08:50,0.613,0.892,0.572,1.112,0.778,0.366,0.643,0.606,�k�k��,1.4,��
2021/03/22,09:00,0.613,0.891,0.574,1.112,0.776,0.365,0.645,0.606,�k��,1.4,��
2021/03/22,09:10,0.612,0.891,0.572,1.112,0.777,0.365,0.643,0.606,�k��,2.5,��
2021/03/22,09:20,0.612,0.892,0.572,1.113,0.778,0.368,0.642,0.606,�k�k��,3.4,��
2021/03/22,09:30,0.614,0.891,0.574,1.114,0.779,0.366,0.645,0.606,�k,1.7,��
2021/03/22,09:40,0.614,0.892,0.574,1.111,0.777,0.367,0.644,0.607,�k�k��,3.0,��
2021/03/22,09:50,0.615,0.894,0.575,1.113,0.778,0.367,0.643,0.606,�k�k��,3.5,��
2021/03/22,10:00,0.615,0.893,0.573,1.111,0.778,0.368,0.644,0.606,�k�k��,2.5,��
2021/03/22,10:10,0.617,0.894,0.573,1.113,0.779,0.366,0.643,0.605,�k�k��,3.0,��
2021/03/22,10:20,0.616,0.893,0.573,1.114,0.779,0.367,0.644,0.607,�k�k��,3.7,��
2021/03/22,10:30,0.616,0.891,0.575,1.114,0.779,0.369,0.644,0.605,�k�k��,3.6,��
2021/03/22,10:40,0.615,0.894,0.573,1.116,0.778,0.366,0.645,0.607,�k�k��,4.1,��
2021/03/22,10:50,0.616,0.895,0.573,1.115,0.779,0.366,0.644,0.607,�k�k��,3.7,��
2021/03/22,11:00,0.617,0.896,0.576,1.115,0.778,0.367,0.644,0.606,�k�k��,2.3,��
2021/03/22,11:10,0.615,0.896,0.575,1.116,0.778,0.367,0.645,0.607,�k�k��,2.6,��
2021/03/22,11:20,0.618,0.895,0.575,1.116,0.781,0.369,0.645,0.608,�k��,2.6,��
2021/03/22,11:30,0.619,0.898,0.577,1.115,0.781,0.368,0.644,0.606,���k��,2.0,��
2021/03/22,11:40,0.618,0.897,0.577,1.118,0.781,0.368,0.644,0.608,���쓌,2.6,��
2021/03/22,11:50,0.619,0.899,0.576,1.116,0.779,0.367,0.642,0.606,��,3.9,��
2021/03/22,12:00,0.618,0.896,0.576,1.118,0.779,0.367,0.643,0.607,��,2.9,��
2021/03/22,12:10,0.617,0.896,0.575,1.117,0.780,0.368,0.644,0.603,�쓌,3.7,��
2021/03/22,12:20,0.618,0.897,0.575,1.117,0.781,0.368,0.645,0.605,�쓌,3.3,��
2021/03/22,12:30,0.617,0.896,0.576,1.117,0.779,0.367,0.644,0.603,�쓌,2.9,��
2021/03/22,12:40,0.619,0.896,0.576,1.117,0.781,0.368,0.644,0.603,��,2.3,��
2021/03/22,12:50,0.618,0.897,0.577,1.118,0.780,0.366,0.644,0.605,���쓌,2.9,��
2021/03/22,13:00,0.619,0.897,0.579,1.118,0.782,0.368,0.643,0.605,��쓌,3.9,��
2021/03/22,13:10,0.618,0.898,0.578,1.118,0.780,0.369,0.644,0.605,���쐼,2.6,��
2021/03/22,13:20,0.620,0.898,0.579,1.120,0.783,0.368,0.644,0.606,���k��,8.4,��
2021/03/22,13:30,0.621,0.903,0.580,1.119,0.783,0.368,0.644,0.605,���k��,5.3,��
2021/03/22,13:40,0.619,0.903,0.580,1.118,0.784,0.369,0.645,0.607,�k��,2.0,��
2021/03/22,13:50,0.619,0.900,0.580,1.120,0.783,0.367,0.646,0.607,��,3.2,��
2021/03/22,14:00,0.620,0.900,0.580,1.122,0.784,0.368,0.645,0.606,-,CALM,��
2021/03/22,14:10,0.619,0.901,0.578,1.120,0.786,0.369,0.647,0.606,��,7.8,��
2021/03/22,14:20,0.621,0.902,0.579,1.121,0.784,0.368,0.645,0.605,���k��,7.5,��
2021/03/22,14:30,0.622,0.904,0.580,1.123,0.785,0.369,0.647,0.605,�k��,7.0,��
2021/03/22,14:40,0.622,0.905,0.580,1.121,0.785,0.368,0.645,0.607,���k��,8.7,��
2021/03/22,14:50,0.623,0.907,0.580,1.122,0.785,0.368,0.644,0.606,��,10.0,��
2021/03/22,15:00,0.621,0.905,0.580,1.120,0.783,0.369,0.645,0.608,�k��,9.3,��
2021/03/22,15:10,0.623,0.905,0.580,1.123,0.784,0.369,0.647,0.605,���k��,9.8,��
2021/03/22,15:20,0.624,0.906,0.579,1.124,0.784,0.369,0.645,0.605,���k��,11.3,��
2021/03/22,15:30,0.622,0.909,0.580,1.124,0.785,0.368,0.645,0.607,���k��,9.8,��
2021/03/22,15:40,0.623,0.907,0.581,1.125,0.787,0.370,0.648,0.607,���k��,9.6,��
2021/03/22,15:50,0.624,0.907,0.581,1.128,0.787,0.369,0.647,0.608,���k��,8.2,��
2021/03/22,16:00,0.621,0.907,0.581,1.125,0.788,0.368,0.646,0.608,���k��,9.3,��
2021/03/22,16:10,0.622,0.907,0.579,1.126,0.786,0.368,0.645,0.607,��,8.7,��
2021/03/22,16:20,0.619,0.905,0.579,1.126,0.787,0.371,0.647,0.607,���k��,7.4,��
2021/03/22,16:30,0.620,0.904,0.578,1.125,0.788,0.370,0.646,0.606,���k��,9.5,��
2021/03/22,16:40,0.620,0.905,0.579,1.127,0.787,0.369,0.646,0.606,���k��,7.5,��
2021/03/22,16:50,0.621,0.907,0.580,1.126,0.788,0.370,0.645,0.607,���k��,5.8,��
2021/03/22,17:00,0.620,0.908,0.580,1.125,0.790,0.369,0.646,0.608,���k��,4.1,��
2021/03/22,17:10,0.621,0.908,0.579,1.127,0.788,0.370,0.647,0.608,�k�k��,6.2,��
2021/03/22,17:20,0.622,0.908,0.582,1.125,0.789,0.369,0.648,0.609,�k�k��,6.2,��
2021/03/22,17:30,0.621,0.908,0.580,1.129,0.788,0.369,0.645,0.610,�k�k��,5.4,��
2021/03/22,17:40,0.622,0.907,0.580,1.127,0.787,0.370,0.647,0.608,�k�k��,4.9,��
2021/03/22,17:50,0.624,0.909,0.580,1.128,0.789,0.368,0.647,0.609,�k,4.2,��
2021/03/22,18:00,0.623,0.910,0.582,1.127,0.788,0.369,0.645,0.611,�k,4.4,��
2021/03/22,18:10,0.622,0.908,0.579,1.127,0.792,0.369,0.646,0.610,�k,5.1,��
2021/03/22,18:20,0.622,0.908,0.580,1.129,0.791,0.368,0.647,0.609,�k,5.2,��
2021/03/22,18:30,0.620,0.907,0.581,1.126,0.791,0.369,0.646,0.609,�k,5.3,��
2021/03/22,18:40,0.623,0.909,0.581,1.128,0.789,0.369,0.646,0.609,�k,4.3,��
2021/03/22,18:50,0.624,0.908,0.580,1.126,0.790,0.368,0.648,0.611,�k,2.9,��
2021/03/22,19:00,0.622,0.908,0.581,1.128,0.790,0.368,0.647,0.610,�k��,2.9,��
2021/03/22,19:10,0.623,0.909,0.580,1.128,0.790,0.370,0.648,0.608,�k�k��,3.6,��
2021/03/22,19:20,0.622,0.910,0.580,1.127,0.792,0.368,0.648,0.609,�k�k��,3.8,��
2021/03/22,19:30,0.621,0.909,0.580,1.126,0.791,0.367,0.649,0.608,�k��,4.5,��
2021/03/22,19:40,0.621,0.910,0.580,1.128,0.792,0.368,0.648,0.609,�k�k��,4.5,��
2021/03/22,19:50,0.624,0.908,0.578,1.127,0.791,0.368,0.648,0.610,�k�k��,4.1,��
2021/03/22,20:00,0.624,0.909,0.579,1.129,0.791,0.367,0.647,0.608,�k,3.2,��
2021/03/22,20:10,0.622,0.907,0.578,1.127,0.792,0.368,0.647,0.608,�k,4.8,��
2021/03/22,20:20,0.620,0.909,0.579,1.128,0.792,0.367,0.648,0.608,�k�k��,4.7,��
2021/03/22,20:30,0.623,0.909,0.580,1.125,0.790,0.366,0.650,0.609,�k,4.8,��
2021/03/22,20:40,0.621,0.907,0.580,1.127,0.793,0.368,0.649,0.609,�k,5.0,��
2021/03/22,20:50,0.620,0.908,0.582,1.128,0.791,0.368,0.647,0.608,�k�k��,3.0,��
2021/03/22,21:00,0.621,0.907,0.579,1.127,0.792,0.368,0.648,0.607,�k��,1.5,��
2021/03/22,21:10,0.620,0.908,0.579,1.127,0.791,0.368,0.647,0.609,�k�k��,2.9,��
2021/03/22,21:20,0.622,0.906,0.580,1.128,0.790,0.367,0.648,0.610,�k�k��,5.5,��
2021/03/22,21:30,0.621,0.909,0.580,1.126,0.793,0.367,0.649,0.608,�k�k��,5.6,��
2021/03/22,21:40,0.622,0.908,0.578,1.127,0.790,0.366,0.648,0.608,�k�k��,5.0,��
2021/03/22,21:50,0.622,0.909,0.578,1.126,0.792,0.367,0.648,0.609,�k��,4.5,��
2021/03/22,22:00,0.622,0.907,0.579,1.127,0.793,0.368,0.647,0.608,�k�k��,4.5,��
2021/03/22,22:10,0.622,0.907,0.580,1.127,0.791,0.367,0.648,0.609,�k�k��,4.5,��
2021/03/22,22:20,0.622,0.906,0.579,1.130,0.792,0.369,0.646,0.608,�k�k��,5.0,��
2021/03/22,22:30,0.622,0.908,0.579,1.129,0.790,0.367,0.648,0.608,�k�k��,4.1,��
2021/03/22,22:40,0.620,0.908,0.581,1.129,0.791,0.367,0.648,0.606,�k�k��,4.3,��
2021/03/22,22:50,0.619,0.908,0.580,1.129,0.791,0.368,0.647,0.608,�k�k��,4.1,��
2021/03/22,23:00,0.622,0.908,0.580,1.127,0.792,0.368,0.648,0.607,�k��,3.6,��
2021/03/22,23:10,0.621,0.908,0.580,1.129,0.792,0.367,0.647,0.610,�k��,3.7,��
2021/03/22,23:20,0.621,0.910,0.579,1.128,0.792,0.367,0.647,0.608,���k��,3.3,��
2021/03/22,23:30,0.620,0.908,0.581,1.128,0.791,0.367,0.649,0.608,���k��,3.0,��
2021/03/22,23:40,0.622,0.908,0.580,1.129,0.791,0.370,0.649,0.609,���k��,2.2,��
2021/03/22,23:50,0.621,0.907,0.579,1.127,0.792,0.368,0.648,0.608,�k��,2.6,��
